{"data":{"norad_id":63849,"intl_designator":"2025-093P","name":"STARLINK-34009","alt_names":[],"object_type":"PAYLOAD","status":"ACTIVE","operator":null,"country":"US","launch_date":"2025-05-07","launch_site_code":"AFETR","launch_vehicle":null,"mission":null,"orbit_class":"UNKNOWN","rcs_meters":null,"size_class":null,"mass_kg":null,"dimensions":null,"purposes":["comms"],"wikipedia_slug":null,"has_3d_model":false,"image_url":null,"decayed_at":null,"tle_current":{"epoch":"2026-09-20T16:47:09.544992Z","epoch_age_seconds":132671,"freshness":"FRESH","line1":"1 63849U 25093P   26263.69941603  .00015211  00000+0  56098-3 0  9996","line2":"2 63849  43.0013  53.3578 0001694 269.6129  90.4529 15.27588572 77833","mean_motion":15.27588572,"eccentricity":0.0001694,"inclination_deg":43.0013,"raan_deg":53.3578,"arg_perigee_deg":269.6129,"mean_anomaly_deg":90.4529,"bstar":0.00056098,"rev_number":7783,"period_min":94.266219739696,"perigee_km":481.86114793133,"apogee_km":484.18570908451,"semimajor_km":6861.1604285079,"source":"CELESTRAK","updated_at":"2026-09-21T09:00:35.133801Z"}}}